STARLINK-36680, 68721

Orbit data source: Space-Track

STARLINK-36680, 68721 is a payload satellite owned by SpaceX/Seattle (US) in LEO that was launched on Tue, 14 Apr 2026 UTC via an FALCON 9 launch vehicle from the Air Force Eastern Test Range (AFETR). Payload-class satellites include a variety of spacecraft equipped with specific instruments for various scientific and technological missions. These include communications satellites like Starlink; space stations such as the ISS; scientific satellites like the Hubble; Earth observation satellites from companies like Planet Labs, Umbra, and HawkEye 360; GPS; miniature CubeSats for education and research; and military/defense satellites.

Loading next visibility...
Identifier
68721, 2026-081Y
Orbit
LEO
Country
Flag of USUS
Related business
Manufacturer
SpaceX/Seattle
Mission
Operational spacecraft
Bus & Motor
STARLINK V2MO, Unknown motor
Mass
575 kg wet, ~530 kg dry
Launch date (UTC)
2026-04-14 (2 months ago)
Launch vehicle
FALCON 9
Launch site
Air Force Eastern Test Range (AFETR)
Object type
Payload
Rocket body
Debris
Shape & HBR
Unknown shape, 14.5 m
Radar Cross Section
Large (>1 m²)

Expand to show TLE details & history
Last TLE update: 1 day ago

TLE from 1 day ago
0 STARLINK-36680
1 68721U 26081Y   26170.56956370  .00012713  00000-0  38657-3 0  9994
2 68721  53.1597 279.9745 0001022  77.7189 282.3928 15.34414725 10352
Epoch: 2026-06-19T13:40Z
TLE epoch observation values (Epoch: 2026-06-19T13:40:10.303Z)
Latitude
-0.00003°
Longitude
167.13489°
Altitude
463.411 km
Speed
7.636 km/s
True Right ascension
18h 39m 53s
True Declination
0° 00' 00"
Sunlit
Object was in full shadow at epoch
Visualization orbit readout
Latitude
Unknown
Longitude
Unknown
Altitude
Unknown
Speed
Unknown
Apparent Right ascension
Unknown
Apparent Declination
Unknown
Sunlit
N/A
Visualization observer readout
Local Sidereal Time
07:18:08
Azimuth
Unknown
Elevation
Unknown
Doppler factor
Unknown
Orbital elements
Apogee altitude
463.616 km
Perigee altitude
462.217 km
Semi-major axis
6,841.053 km
Eccentricity
0.0001
Inclination
53.1597°
RAAN
279.9745°
Arg. of periapsis
77.7189°
True anomaly
282.38136°
Mean anomaly
282.3928°
Eccentric anomaly
282.38708°
Mean motion
3.83582 °/min
Orbital period
93.85 mins
BSTAR
0.00038657
Loading maneuver chart data...
Computing Atmospheric mass density...
Loading historical data...
Loading historical data...
Loading historical data...
Loading historical data...
Loading historical data...
Loading historical data...
Loading historical data...

Documentation

Showing up to 5 results
|